| time (UTC) | temp C | wind direction | speed KPH | gust KPH | rain 1hr cm | rain 24hr cm | rain mn cm | humidity % | barometer mb |
| 20260904013438 | 13 | 95 | 0.0 | 1.6 | 0.00 | 0.00 | 0.00 | 97 | 972.5 |
| 20260904013023 | 13 | 95 | 0.0 | 1.6 | 0.00 | 0.00 | 0.00 | 97 | 972.6 |
| 20260904012558 | 13 | 95 | 0.0 | 1.6 | 0.00 | 0.00 | 0.00 | 97 | 972.4 |
| 20260904012118 | 13 | 95 | 1.6 | 0.0 | 0.00 | 0.00 | 0.00 | 97 | 972.6 |
| 20260904011648 | 13 | 95 | 0.0 | 1.6 | 0.00 | 0.00 | 0.00 | 97 | 972.4 |
| 20260904011153 | 13 | 95 | 0.0 | 1.6 | 0.00 | 0.00 | 0.00 | 97 | 972.7 |
| 20260904010703 | 13 | 95 | 1.6 | 1.6 | 0.00 | 0.00 | 0.00 | 97 | 972.6 |
| 20260904010216 | 13 | 95 | 1.6 | 1.6 | 0.00 | 0.00 | 0.00 | 96 | 972.8 |
| 20260904005733 | 13 | 95 | 0.0 | 1.6 | 0.00 | 0.00 | 0.00 | 96 | 972.6 |
| 20260904005256 | 13 | 95 | 0.0 | 1.6 | 0.00 | 0.00 | 0.00 | 96 | 972.8 |
| 20260904004833 | 13 | 95 | 0.0 | 0.0 | 0.00 | 0.00 | 0.00 | 96 | 972.7 |
| 20260904004356 | 14 | 95 | 1.6 | 1.6 | 0.00 | 0.00 | 0.00 | 96 | 972.9 |
| 20260904003923 | 14 | 95 | 0.0 | 1.6 | 0.00 | 0.00 | 0.00 | 96 | 972.7 |
| 20260904003453 | 14 | 95 | 0.0 | 1.6 | 0.00 | 0.00 | 0.00 | 96 | 972.9 |
| 20260904003033 | 14 | 95 | 0.0 | 1.6 | 0.00 | 0.00 | 0.00 | 96 | 972.9 |
| 20260904002556 | 14 | 95 | 0.0 | 1.6 | 0.00 | 0.00 | 0.00 | 96 | 973.0 |
| 20260904002128 | 14 | 95 | 0.0 | 1.6 | 0.00 | 0.00 | 0.00 | 96 | 972.9 |
| 20260904001658 | 14 | 95 | 0.0 | 1.6 | 0.00 | 0.00 | 0.00 | 96 | 973.0 |
| 20260904001223 | 14 | 95 | 0.0 | 1.6 | 0.00 | 0.00 | 0.00 | 96 | 972.9 |
| 20260904000736 | 14 | 95 | 0.0 | 1.6 | 0.00 | 0.00 | 0.00 | 96 | 973.2 |
| 20260904000313 | 14 | 96 | 0.0 | 1.6 | 0.00 | 0.00 | 0.00 | 96 | 973.1 |
| 20260903235841 | 14 | 96 | 0.0 | 1.6 | 0.00 | 0.00 | 0.00 | 96 | 973.0 |
| 20260903235358 | 15 | 96 | 0.0 | 1.6 | 0.00 | 0.00 | 0.00 | 96 | 973.2 |
| 20260903234928 | 15 | 96 | 0.0 | 1.6 | 0.00 | 0.00 | 0.00 | 96 | 973.3 |
| 20260903234503 | 15 | 96 | 0.0 | 0.0 | 0.00 | 0.00 | 0.00 | 96 | 973.5 |
| 20260903234043 | 15 | 96 | 0.0 | 0.0 | 0.00 | 0.00 | 0.00 | 96 | 973.3 |
| 20260903233608 | 15 | 96 | 0.0 | 0.0 | 0.00 | 0.00 | 0.00 | 96 | 973.4 |
| 20260903233156 | 15 | 96 | 0.0 | 0.0 | 0.00 | 0.00 | 0.00 | 96 | 973.5 |
| 20260903232736 | 15 | 96 | 0.0 | 0.0 | 0.00 | 0.00 | 0.00 | 96 | 973.4 |
| 20260903232308 | 15 | 96 | 1.6 | 0.0 | 0.00 | 0.00 | 0.00 | 96 | 973.1 |
| 20260903231848 | 15 | 96 | 1.6 | 0.0 | 0.00 | 0.00 | 0.00 | 96 | 973.5 |
| 20260903231418 | 15 | 96 | 0.0 | 0.0 | 0.00 | 0.00 | 0.00 | 96 | 973.5 |
| 20260903230928 | 15 | 96 | 1.6 | 0.0 | 0.00 | 0.00 | 0.00 | 96 | 973.6 |
| 20260903230458 | 15 | 96 | 1.6 | 0.0 | 0.00 | 0.00 | 0.00 | 96 | 973.6 |
| 20260903230033 | 15 | 96 | 1.6 | 0.0 | 0.00 | 0.00 | 0.00 | 96 | 973.5 |
| 20260903225541 | 15 | 300 | 0.0 | 0.0 | 0.00 | 0.00 | 0.00 | 96 | 973.5 |
| 20260903225048 | 15 | 300 | 0.0 | 1.6 | 0.00 | 0.00 | 0.00 | 96 | 973.4 |
| 20260903224628 | 15 | 300 | 0.0 | 1.6 | 0.00 | 0.00 | 0.00 | 96 | 973.7 |
| 20260903224213 | 15 | 300 | 0.0 | 1.6 | 0.00 | 0.00 | 0.00 | 96 | 973.6 |
| 20260903223748 | 15 | 300 | 0.0 | 1.6 | 0.00 | 0.00 | 0.00 | 96 | 973.6 |
| 20260903223333 | 15 | 300 | 1.6 | 1.6 | 0.00 | 0.00 | 0.00 | 96 | 973.7 |
| 20260903222913 | 15 | 300 | 1.6 | 1.6 | 0.00 | 0.00 | 0.00 | 96 | 973.7 |
| 20260903222433 | 15 | 300 | 0.0 | 0.0 | 0.00 | 0.00 | 0.00 | 96 | 973.7 |
| 20260903221958 | 15 | 300 | 0.0 | 0.0 | 0.00 | 0.00 | 0.00 | 96 | 973.7 |
| 20260903221553 | 15 | 300 | 0.0 | 0.0 | 0.00 | 0.00 | 0.00 | 96 | 973.7 |
| 20260903221123 | 15 | 300 | 1.6 | 1.6 | 0.00 | 0.00 | 0.00 | 96 | 973.8 |
| 20260903220713 | 15 | 300 | 1.6 | 1.6 | 0.00 | 0.00 | 0.00 | 96 | 973.5 |
| 20260903220228 | 15 | 306 | 1.6 | 4.8 | 0.00 | 0.00 | 0.00 | 96 | 973.4 |
| 20260903215808 | 15 | 306 | 3.2 | 8.0 | 0.00 | 0.00 | 0.00 | 96 | 973.6 |
| 20260903215336 | 15 | 306 | 0.0 | 1.6 | 0.00 | 0.00 | 0.00 | 96 | 973.5 |
| 20260903214901 | 15 | 332 | 0.0 | 1.6 | 0.00 | 0.00 | 0.00 | 96 | 973.6 |
| 20260903214423 | 15 | 332 | 0.0 | 1.6 | 0.00 | 0.00 | 0.00 | 96 | 973.4 |
| 20260903213956 | 15 | 332 | 0.0 | 1.6 | 0.00 | 0.00 | 0.00 | 96 | 973.7 |
| 20260903213536 | 16 | 110 | 0.0 | 0.0 | 0.00 | 0.00 | 0.00 | 96 | 973.6 |
| 20260903213116 | 16 | 106 | 0.0 | 0.0 | 0.00 | 0.00 | 0.00 | 96 | 973.7 |
| 20260903212633 | 16 | 106 | 0.0 | 0.0 | 0.00 | 0.00 | 0.00 | 96 | 973.6 |
| 20260903212153 | 16 | 106 | 0.0 | 0.0 | 0.00 | 0.00 | 0.00 | 96 | 973.5 |
| 20260903211718 | 16 | 106 | 0.0 | 0.0 | 0.00 | 0.00 | 0.00 | 96 | 973.5 |
| 20260903211248 | 16 | 106 | 0.0 | 0.0 | 0.00 | 0.00 | 0.00 | 96 | 973.7 |
| 20260903210756 | 16 | 106 | 0.0 | 0.0 | 0.00 | 0.00 | 0.00 | 96 | 973.7 |
| 20260903210323 | 16 | 106 | 0.0 | 0.0 | 0.00 | 0.00 | 0.00 | 96 | 973.8 |
| 20260903205843 | 16 | 106 | 1.6 | 0.0 | 0.00 | 0.00 | 0.00 | 96 | 973.8 |
| 20260903205408 | 16 | 106 | 0.0 | 0.0 | 0.00 | 0.00 | 0.00 | 96 | 973.8 |
| 20260903204936 | 16 | 106 | 0.0 | 0.0 | 0.00 | 0.00 | 0.00 | 94 | 974.0 |
| 20260903204453 | 16 | 106 | 0.0 | 1.6 | 0.00 | 0.00 | 0.00 | 94 | 974.0 |
| 20260903204019 | 16 | 106 | 0.0 | 1.6 | 0.00 | 0.00 | 0.00 | 94 | 973.8 |
| 20260903203616 | 16 | 106 | 1.6 | 1.6 | 0.00 | 0.00 | 0.00 | 94 | 973.7 |
| 20260903203128 | 16 | 106 | 1.6 | 1.6 | 0.00 | 0.00 | 0.00 | 94 | 973.7 |
| 20260903202713 | 16 | 106 | 0.0 | 1.6 | 0.00 | 0.00 | 0.00 | 94 | 973.8 |
| 20260903202253 | 16 | 106 | 0.0 | 1.6 | 0.00 | 0.00 | 0.00 | 94 | 973.9 |
| 20260903201843 | 16 | 106 | 0.0 | 1.6 | 0.00 | 0.00 | 0.00 | 94 | 973.7 |
| 20260903201356 | 16 | 106 | 0.0 | 1.6 | 0.00 | 0.00 | 0.00 | 94 | 973.8 |
| 20260903200916 | 16 | 106 | 0.0 | 1.6 | 0.00 | 0.00 | 0.00 | 94 | 973.3 |
| 20260903200508 | 16 | 106 | 0.0 | 1.6 | 0.00 | 0.00 | 0.00 | 94 | 973.5 |
| 20260903200043 | 16 | 106 | 0.0 | 0.0 | 0.00 | 0.00 | 0.00 | 94 | 973.5 |
| 20260903195553 | 16 | 106 | 0.0 | 0.0 | 0.00 | 0.00 | 0.00 | 94 | 973.3 |
| 20260903195116 | 16 | 106 | 0.0 | 0.0 | 0.00 | 0.00 | 0.00 | 94 | 973.3 |
| 20260903194658 | 16 | 106 | 0.0 | 0.0 | 0.00 | 0.00 | 0.00 | 94 | 973.3 |
| 20260903194233 | 16 | 106 | 0.0 | 0.0 | 0.00 | 0.00 | 0.00 | 94 | 973.5 |
| 20260903193748 | 16 | 106 | 0.0 | 0.0 | 0.00 | 0.00 | 0.00 | 94 | 973.3 |
| 20260903193256 | 16 | 106 | 0.0 | 0.0 | 0.00 | 0.00 | 0.00 | 94 | 973.4 |
| 20260903192843 | 16 | 106 | 0.0 | 0.0 | 0.00 | 0.00 | 0.00 | 94 | 973.5 |
| 20260903192422 | 16 | 106 | 0.0 | 0.0 | 0.00 | 0.00 | 0.00 | 93 | 973.6 |
| 20260903192013 | 16 | 106 | 0.0 | 0.0 | 0.00 | 0.00 | 0.00 | 94 | 973.6 |
| 20260903191533 | 16 | 106 | 0.0 | 0.0 | 0.00 | 0.00 | 0.00 | 94 | 973.6 |
| 20260903191058 | 16 | 106 | 0.0 | 0.0 | 0.00 | 0.00 | 0.00 | 90 | 973.6 |
| 20260903190628 | 16 | 106 | 0.0 | 1.6 | 0.00 | 0.00 | 0.00 | 90 | 973.4 |
| 20260903190213 | 16 | 106 | 0.0 | 1.6 | 0.00 | 0.00 | 0.00 | 90 | 973.6 |
| 20260903185758 | 16 | 106 | 0.0 | 1.6 | 0.00 | 0.00 | 0.00 | 90 | 973.6 |
| 20260903185336 | 16 | 106 | 0.0 | 0.0 | 0.00 | 0.00 | 0.00 | 90 | 973.6 |
| 20260903184913 | 16 | 106 | 0.0 | 0.0 | 0.00 | 0.00 | 0.00 | 90 | 973.6 |
| 20260903184443 | 16 | 106 | 0.0 | 0.0 | 0.00 | 0.00 | 0.00 | 90 | 973.5 |
| 20260903183953 | 16 | 106 | 0.0 | 0.0 | 0.00 | 0.00 | 0.00 | 90 | 973.6 |
| 20260903183456 | 16 | 106 | 0.0 | 0.0 | 0.00 | 0.00 | 0.00 | 90 | 973.5 |
| 20260903183018 | 16 | 106 | 0.0 | 0.0 | 0.00 | 0.00 | 0.00 | 90 | 973.6 |
| 20260903182533 | 16 | 106 | 0.0 | 0.0 | 0.00 | 0.00 | 0.00 | 90 | 973.6 |
| 20260903182059 | 16 | 106 | 0.0 | 0.0 | 0.00 | 0.00 | 0.00 | 90 | 973.6 |
| 20260903181623 | 16 | 106 | 0.0 | 0.0 | 0.00 | 0.00 | 0.00 | 90 | 973.6 |
| 20260903181156 | 16 | 106 | 0.0 | 0.0 | 0.00 | 0.00 | 0.00 | 90 | 973.3 |
| 20260903180743 | 16 | 106 | 0.0 | 0.0 | 0.00 | 0.00 | 0.00 | 90 | 973.5 |
| 20260903180308 | 16 | 106 | 1.6 | 1.6 | 0.00 | 0.00 | 0.00 | 90 | 973.5 |
| 20260903175856 | 16 | 106 | 0.0 | 0.0 | 0.00 | 0.00 | 0.00 | 90 | 973.2 |
| 20260903175407 | 16 | 106 | 0.0 | 1.6 | 0.00 | 0.00 | 0.00 | 90 | 973.4 |
| 20260903174938 | 16 | 106 | 0.0 | 1.6 | 0.00 | 0.00 | 0.00 | 90 | 973.5 |
| 20260903174513 | 16 | 106 | 0.0 | 0.0 | 0.00 | 0.00 | 0.00 | 90 | 973.6 |
| 20260903174033 | 16 | 99 | 0.0 | 0.0 | 0.00 | 0.00 | 0.00 | 90 | 973.3 |
| 20260903173603 | 16 | 99 | 0.0 | 0.0 | 0.00 | 0.00 | 0.00 | 90 | 973.3 |
| 20260903173143 | 16 | 99 | 0.0 | 0.0 | 0.00 | 0.00 | 0.00 | 90 | 973.3 |
| 20260903172703 | 16 | 99 | 1.6 | 1.6 | 0.00 | 0.00 | 0.00 | 90 | 973.1 |
| 20260903172236 | 16 | 99 | 1.6 | 1.6 | 0.00 | 0.00 | 0.00 | 90 | 973.3 |
| 20260903171806 | 16 | 99 | 1.6 | 1.6 | 0.00 | 0.00 | 0.00 | 90 | 973.2 |
| 20260903171328 | 16 | 99 | 1.6 | 1.6 | 0.00 | 0.00 | 0.00 | 89 | 973.2 |
| 20260903170913 | 16 | 99 | 0.0 | 1.6 | 0.00 | 0.00 | 0.00 | 89 | 973.4 |
| 20260903170438 | 16 | 99 | 0.0 | 1.6 | 0.00 | 0.00 | 0.00 | 89 | 973.5 |
| 20260903170028 | 16 | 99 | 0.0 | 1.6 | 0.00 | 0.00 | 0.00 | 89 | 973.2 |
| 20260903165616 | 16 | 99 | 0.0 | 0.0 | 0.00 | 0.00 | 0.00 | 89 | 973.4 |
| 20260903165208 | 16 | 99 | 0.0 | 0.0 | 0.00 | 0.00 | 0.00 | 89 | 973.5 |
| 20260903164736 | 16 | 99 | 0.0 | 0.0 | 0.00 | 0.00 | 0.00 | 87 | 973.6 |
| 20260903164308 | 16 | 99 | 0.0 | 0.0 | 0.00 | 0.00 | 0.00 | 87 | 973.4 |
| 20260903163834 | 16 | 106 | 0.0 | 0.0 | 0.00 | 0.00 | 0.00 | 87 | 973.7 |
| 20260903163423 | 16 | 106 | 0.0 | 0.0 | 0.00 | 0.00 | 0.00 | 87 | 973.7 |
| 20260903162958 | 16 | 106 | 0.0 | 4.8 | 0.00 | 0.00 | 0.00 | 87 | 973.7 |
| 20260903162523 | 16 | 106 | 1.6 | 4.8 | 0.00 | 0.00 | 0.00 | 87 | 973.7 |
| 20260903162028 | 16 | 106 | 0.0 | 4.8 | 0.00 | 0.00 | 0.00 | 87 | 973.7 |
| 20260903161613 | 16 | 106 | 0.0 | 4.8 | 0.00 | 0.00 | 0.00 | 87 | 973.7 |
| 20260903161143 | 16 | 106 | 0.0 | 1.6 | 0.00 | 0.00 | 0.00 | 87 | 973.7 |
| 20260903160713 | 16 | 111 | 0.0 | 1.6 | 0.00 | 0.00 | 0.00 | 87 | 973.9 |
| 20260903160253 | 16 | 69 | 0.0 | 0.0 | 0.00 | 0.00 | 0.00 | 87 | 974.2 |
| 20260903155828 | 16 | 69 | 0.0 | 0.0 | 0.00 | 0.00 | 0.00 | 87 | 974.0 |
| 20260903155353 | 16 | 69 | 0.0 | 0.0 | 0.00 | 0.00 | 0.00 | 87 | 974.1 |
| 20260903154918 | 16 | 69 | 0.0 | 0.0 | 0.00 | 0.00 | 0.00 | 87 | 973.9 |
| 20260903154436 | 16 | 69 | 0.0 | 0.0 | 0.00 | 0.00 | 0.00 | 87 | 974.0 |
| 20260903153948 | 16 | 69 | 0.0 | 0.0 | 0.00 | 0.00 | 0.00 | 87 | 974.1 |
| 20260903153533 | 16 | 69 | 0.0 | 0.0 | 0.00 | 0.00 | 0.00 | 87 | 974.2 |
| 20260903153048 | 16 | 69 | 0.0 | 0.0 | 0.00 | 0.00 | 0.00 | 87 | 973.9 |
| 20260903152623 | 16 | 69 | 0.0 | 0.0 | 0.00 | 0.00 | 0.00 | 87 | 974.1 |
| 20260903152138 | 16 | 68 | 1.6 | 1.6 | 0.00 | 0.00 | 0.00 | 87 | 974.1 |
| 20260903151713 | 16 | 67 | 0.0 | 1.6 | 0.00 | 0.00 | 0.00 | 87 | 973.9 |
| 20260903151236 | 16 | 67 | 0.0 | 1.6 | 0.00 | 0.00 | 0.00 | 87 | 974.0 |
| 20260903150818 | 16 | 65 | 0.0 | 1.6 | 0.00 | 0.00 | 0.00 | 87 | 974.0 |
| 20260903150346 | 16 | 65 | 0.0 | 1.6 | 0.00 | 0.00 | 0.00 | 87 | 974.0 |
| 20260903145928 | 16 | 65 | 0.0 | 0.0 | 0.00 | 0.00 | 0.00 | 87 | 973.8 |
| 20260903145513 | 16 | 66 | 0.0 | 0.0 | 0.00 | 0.00 | 0.00 | 87 | 973.9 |
| 20260903145053 | 16 | 338 | 0.0 | 1.6 | 0.00 | 0.00 | 0.00 | 88 | 973.9 |
| 20260903144153 | 16 | 338 | 0.0 | 1.6 | 0.00 | 0.00 | 0.00 | 85 | 974.1 |
| 20260903143733 | 16 | 338 | 1.6 | 1.6 | 0.00 | 0.00 | 0.00 | 85 | 974.2 |
| 20260903143253 | 16 | 338 | 1.6 | 1.6 | 0.00 | 0.00 | 0.00 | 85 | 974.0 |
| 20260903142813 | 16 | 338 | 0.0 | 1.6 | 0.00 | 0.00 | 0.00 | 85 | 974.4 |
| 20260903142343 | 17 | 338 | 0.0 | 4.8 | 0.00 | 0.00 | 0.00 | 85 | 974.2 |
| 20260903141853 | 17 | 335 | 0.0 | 0.0 | 0.00 | 0.00 | 0.00 | 85 | 974.6 |
| 20260903141403 | 17 | 335 | 1.6 | 4.8 | 0.00 | 0.00 | 0.00 | 83 | 974.6 |
| 20260903140903 | 17 | 335 | 1.6 | 4.8 | 0.00 | 0.00 | 0.00 | 83 | 974.4 |
| 20260903140436 | 17 | 349 | 0.0 | 4.8 | 0.00 | 0.00 | 0.00 | 83 | 974.5 |
| 20260903140008 | 17 | 286 | 3.2 | 4.8 | 0.00 | 0.00 | 0.00 | 83 | 974.3 |
| 20260903135533 | 17 | 286 | 3.2 | 8.0 | 0.00 | 0.00 | 0.00 | 83 | 974.2 |
| 20260903135058 | 17 | 286 | 3.2 | 8.0 | 0.00 | 0.00 | 0.00 | 83 | 974.4 |
| 20260903134623 | 17 | 286 | 3.2 | 8.0 | 0.00 | 0.00 | 0.00 | 83 | 974.2 |
| 20260903134136 | 17 | 9 | 1.6 | 4.8 | 0.00 | 0.00 | 0.00 | 81 | 974.2 |
| 20260903133653 | 17 | 102 | 1.6 | 1.6 | 0.00 | 0.00 | 0.00 | 81 | 974.2 |
| 20260903133238 | 17 | 102 | 3.2 | 1.6 | 0.00 | 0.00 | 0.00 | 81 | 974.2 |
| 20260903132758 | 17 | 306 | 0.0 | 1.6 | 0.00 | 0.00 | 0.00 | 81 | 974.1 |
| 20260903132333 | 17 | 306 | 3.2 | 1.6 | 0.00 | 0.00 | 0.00 | 78 | 974.2 |
| 20260903131853 | 18 | 306 | 3.2 | 1.6 | 0.00 | 0.00 | 0.00 | 68 | 974.4 |
| 20260903131433 | 18 | 306 | 1.6 | 1.6 | 0.00 | 0.00 | 0.00 | 68 | 974.1 |
| 20260903131013 | 18 | 274 | 1.6 | 8.0 | 0.00 | 0.00 | 0.00 | 68 | 974.2 |
| 20260903130533 | 20 | 265 | 0.0 | 14.5 | 0.00 | 0.00 | 0.00 | 68 | 974.3 |
| 20260903130113 | 20 | 321 | 14.5 | 8.0 | 0.00 | 0.00 | 0.00 | 57 | 974.6 |
| 20260903125656 | 20 | 321 | 14.5 | 14.5 | 0.00 | 0.00 | 0.00 | 57 | 974.4 |
| 20260903125246 | 20 | 321 | 14.5 | 20.9 | 0.00 | 0.00 | 0.00 | 57 | 974.2 |
| 20260903124816 | 20 | 334 | 11.3 | 29.0 | 0.00 | 0.00 | 0.00 | 57 | 974.3 |
| 20260903124401 | 20 | 159 | 8.0 | 14.5 | 0.00 | 0.00 | 0.00 | 57 | 974.3 |
| 20260903123956 | 20 | 159 | 6.4 | 14.5 | 0.00 | 0.00 | 0.00 | 57 | 974.3 |
| 20260903123523 | 20 | 159 | 6.4 | 11.3 | 0.00 | 0.00 | 0.00 | 57 | 974.1 |
| 20260903123113 | 20 | 159 | 6.4 | 11.3 | 0.00 | 0.00 | 0.00 | 52 | 973.8 |
| 20260903122638 | 20 | 324 | 0.0 | 8.0 | 0.00 | 0.00 | 0.00 | 52 | 973.8 |
| 20260903122213 | 20 | 159 | 1.6 | 20.9 | 0.00 | 0.00 | 0.00 | 52 | 973.7 |
| 20260903121723 | 20 | 341 | 4.8 | 20.9 | 0.00 | 0.00 | 0.00 | 52 | 974.0 |
| 20260903121233 | 20 | 341 | 3.2 | 14.5 | 0.00 | 0.00 | 0.00 | 52 | 974.0 |
| 20260903120808 | 20 | 341 | 1.6 | 14.5 | 0.00 | 0.00 | 0.00 | 50 | 974.0 |
| 20260903120328 | 20 | 289 | 8.0 | 8.0 | 0.00 | 0.00 | 0.00 | 50 | 974.2 |
| 20260903115916 | 20 | 289 | 11.3 | 8.0 | 0.00 | 0.00 | 0.00 | 50 | 974.1 |
| 20260903115513 | 20 | 289 | 3.2 | 8.0 | 0.00 | 0.00 | 0.00 | 50 | 974.2 |
| 20260903115048 | 20 | 159 | 3.2 | 22.5 | 0.00 | 0.00 | 0.00 | 50 | 974.2 |
| 20260903114618 | 20 | 159 | 3.2 | 4.8 | 0.00 | 0.00 | 0.00 | 50 | 974.3 |
| 20260903114158 | 20 | 159 | 3.2 | 14.5 | 0.00 | 0.00 | 0.00 | 50 | 974.5 |
| 20260903113728 | 20 | 159 | 14.5 | 20.9 | 0.00 | 0.00 | 0.00 | 50 | 974.5 |
| 20260903113256 | 20 | 159 | 3.2 | 17.7 | 0.00 | 0.00 | 0.00 | 50 | 974.4 |
| 20260903112843 | 20 | 345 | 12.9 | 20.9 | 0.00 | 0.00 | 0.00 | 50 | 974.3 |
| 20260903112423 | 20 | 216 | 6.4 | 29.0 | 0.00 | 0.00 | 0.00 | 51 | 974.5 |
| 20260903111948 | 20 | 216 | 6.4 | 25.7 | 0.00 | 0.00 | 0.00 | 51 | 974.6 |
| 20260903111538 | 20 | 216 | 3.2 | 11.3 | 0.00 | 0.00 | 0.00 | 52 | 974.4 |
| 20260903111103 | 20 | 263 | 11.3 | 20.9 | 0.00 | 0.00 | 0.00 | 52 | 974.4 |
| 20260903110623 | 20 | 149 | 6.4 | 14.5 | 0.00 | 0.00 | 0.00 | 52 | 974.7 |
| 20260903110123 | 20 | 159 | 17.7 | 14.5 | 0.00 | 0.00 | 0.00 | 53 | 974.4 |
| 20260903105656 | 20 | 203 | 9.7 | 20.9 | 0.00 | 0.00 | 0.00 | 53 | 974.6 |
| 20260903105233 | 20 | 203 | 9.7 | 20.9 | 0.00 | 0.00 | 0.00 | 53 | 974.6 |
| 20260903104823 | 19 | 203 | 1.6 | 8.0 | 0.00 | 0.00 | 0.00 | 53 | 974.8 |
| 20260903104358 | 19 | 317 | 1.6 | 14.5 | 0.00 | 0.00 | 0.00 | 53 | 974.5 |
| 20260903103923 | 19 | 136 | 8.0 | 17.7 | 0.00 | 0.00 | 0.00 | 53 | 974.7 |
| 20260903103514 | 20 | 136 | 12.9 | 17.7 | 0.00 | 0.00 | 0.00 | 53 | 974.8 |
| 20260903103102 | 20 | 114 | 17.7 | 22.5 | 0.00 | 0.00 | 0.00 | 48 | 974.6 |
| 20260903102656 | 20 | 114 | 12.9 | 17.7 | 0.00 | 0.00 | 0.00 | 48 | 974.8 |
| 20260903102213 | 20 | 321 | 20.9 | 35.4 | 0.00 | 0.00 | 0.00 | 48 | 974.9 |
| 20260903101743 | 20 | 260 | 32.2 | 14.5 | 0.00 | 0.00 | 0.00 | 48 | 974.9 |
| 20260903101316 | 20 | 353 | 19.3 | 14.5 | 0.00 | 0.00 | 0.00 | 48 | 975.1 |
| 20260903100848 | 20 | 315 | 19.3 | 14.5 | 0.00 | 0.00 | 0.00 | 48 | 975.0 |
| 20260903100413 | 20 | 315 | 14.5 | 14.5 | 0.00 | 0.00 | 0.00 | 48 | 975.0 |
| 20260903095948 | 20 | 265 | 14.5 | 22.5 | 0.00 | 0.00 | 0.00 | 48 | 975.0 |
| 20260903095513 | 20 | 203 | 14.5 | 29.0 | 0.00 | 0.00 | 0.00 | 50 | 975.1 |
| 20260903095028 | 20 | 1 | 20.9 | 29.0 | 0.00 | 0.00 | 0.00 | 50 | 974.9 |
| 20260903094553 | 20 | 238 | 17.7 | 29.0 | 0.00 | 0.00 | 0.00 | 50 | 974.8 |
| 20260903094128 | 20 | 116 | 17.7 | 40.2 | 0.00 | 0.00 | 0.00 | 48 | 974.9 |
| 20260903093708 | 20 | 325 | 11.3 | 32.2 | 0.00 | 0.00 | 0.00 | 48 | 975.1 |
| 20260903093243 | 20 | 111 | 11.3 | 22.5 | 0.00 | 0.00 | 0.00 | 48 | 975.1 |
| 20260903092756 | 20 | 136 | 14.5 | 22.5 | 0.00 | 0.00 | 0.00 | 48 | 974.8 |
| 20260903092348 | 20 | 136 | 8.0 | 20.9 | 0.00 | 0.00 | 0.00 | 48 | 975.1 |
| 20260903091902 | 20 | 326 | 1.6 | 25.7 | 0.00 | 0.00 | 0.00 | 48 | 974.8 |
| 20260903091433 | 20 | 321 | 4.8 | 14.5 | 0.00 | 0.00 | 0.00 | 49 | 974.7 |
| 20260903091013 | 20 | 333 | 6.4 | 32.2 | 0.00 | 0.00 | 0.00 | 49 | 975.1 |
| 20260903090613 | 20 | 333 | 9.7 | 32.2 | 0.00 | 0.00 | 0.00 | 48 | 975.0 |
| 20260903090118 | 20 | 135 | 1.6 | 17.7 | 0.00 | 0.00 | 0.00 | 49 | 974.9 |
| 20260903085653 | 20 | 238 | 6.4 | 8.0 | 0.00 | 0.00 | 0.00 | 51 | 974.8 |
| 20260903085223 | 20 | 289 | 1.6 | 4.8 | 0.00 | 0.00 | 0.00 | 51 | 974.9 |
| 20260903084733 | 18 | 304 | 4.8 | 20.9 | 0.00 | 0.00 | 0.00 | 51 | 974.9 |
| 20260903084248 | 18 | 284 | 16.1 | 14.5 | 0.00 | 0.00 | 0.00 | 51 | 975.0 |
| 20260903083759 | 20 | 211 | 16.1 | 14.5 | 0.00 | 0.00 | 0.00 | 51 | 975.3 |
| 20260903083333 | 20 | 211 | 8.0 | 22.5 | 0.00 | 0.00 | 0.00 | 51 | 975.0 |
| 20260903082848 | 20 | 141 | 1.6 | 8.0 | 0.00 | 0.00 | 0.00 | 51 | 975.2 |
| 20260903082428 | 18 | 102 | 6.4 | 11.3 | 0.00 | 0.00 | 0.00 | 51 | 975.1 |
| 20260903082028 | 18 | 71 | 1.6 | 4.8 | 0.00 | 0.00 | 0.00 | 51 | 975.1 |
| 20260903081603 | 18 | 71 | 1.6 | 4.8 | 0.00 | 0.00 | 0.00 | 55 | 974.9 |
| 20260903081153 | 18 | 71 | 1.6 | 4.8 | 0.00 | 0.00 | 0.00 | 55 | 974.8 |
| 20260903080728 | 18 | 342 | 1.6 | 8.0 | 0.00 | 0.00 | 0.00 | 55 | 974.8 |
| 20260903080253 | 18 | 100 | 0.0 | 8.0 | 0.00 | 0.00 | 0.00 | 55 | 974.8 |
| 20260903075808 | 18 | 140 | 0.0 | 8.0 | 0.00 | 0.00 | 0.00 | 55 | 974.7 |
| 20260903075318 | 18 | 108 | 9.7 | 0.0 | 0.00 | 0.00 | 0.00 | 59 | 974.7 |
| 20260903074848 | 17 | 108 | 8.0 | 14.5 | 0.00 | 0.00 | 0.00 | 59 | 974.7 |
| 20260903074413 | 17 | 114 | 3.2 | 14.5 | 0.00 | 0.00 | 0.00 | 59 | 974.6 |
| 20260903073958 | 17 | 99 | 6.4 | 8.0 | 0.00 | 0.00 | 0.00 | 59 | 974.8 |
| 20260903073548 | 18 | 99 | 3.2 | 14.5 | 0.00 | 0.00 | 0.00 | 59 | 974.7 |
| 20260903073115 | 18 | 119 | 3.2 | 11.3 | 0.00 | 0.00 | 0.00 | 59 | 975.0 |
| 20260903072658 | 18 | 119 | 3.2 | 4.8 | 0.00 | 0.00 | 0.00 | 59 | 974.8 |
| 20260903072228 | 18 | 119 | 1.6 | 4.8 | 0.00 | 0.00 | 0.00 | 64 | 975.2 |
| 20260903071745 | 18 | 106 | 1.6 | 8.0 | 0.00 | 0.00 | 0.00 | 64 | 975.0 |
| 20260903071328 | 17 | 113 | 1.6 | 8.0 | 0.00 | 0.00 | 0.00 | 64 | 975.1 |
| 20260903070835 | 17 | 113 | 3.2 | 8.0 | 0.00 | 0.00 | 0.00 | 64 | 975.2 |
| 20260903070358 | 17 | 97 | 3.2 | 1.6 | 0.00 | 0.00 | 0.00 | 64 | 975.1 |
| 20260903065908 | 17 | 97 | 1.6 | 0.0 | 0.00 | 0.00 | 0.00 | 64 | 975.0 |
| 20260903065438 | 17 | 19 | 1.6 | 0.0 | 0.00 | 0.00 | 0.00 | 64 | 975.2 |
| 20260903065033 | 18 | 19 | 0.0 | 0.0 | 0.00 | 0.00 | 0.00 | 64 | 975.3 |
| 20260903064613 | 18 | 19 | 1.6 | 0.0 | 0.00 | 0.00 | 0.00 | 63 | 975.0 |
| 20260903064128 | 18 | 19 | 1.6 | 0.0 | 0.00 | 0.00 | 0.00 | 63 | 975.3 |
| 20260903063703 | 16 | 19 | 1.6 | 0.0 | 0.00 | 0.00 | 0.00 | 66 | 975.2 |
| 20260903063225 | 16 | 19 | 1.6 | 0.0 | 0.00 | 0.00 | 0.00 | 66 | 975.2 |
| 20260903062758 | 16 | 19 | 0.0 | 0.0 | 0.00 | 0.00 | 0.00 | 77 | 975.2 |
| 20260903062343 | 15 | 19 | 0.0 | 0.0 | 0.00 | 0.00 | 0.00 | 77 | 975.0 |
| 20260903061903 | 15 | 324 | 1.6 | 0.0 | 0.00 | 0.00 | 0.00 | 77 | 975.4 |
| 20260903061415 | 12 | 324 | 0.0 | 0.0 | 0.00 | 0.00 | 0.00 | 77 | 975.5 |
| 20260903060923 | 12 | 324 | 0.0 | 0.0 | 0.00 | 0.00 | 0.00 | 77 | 975.4 |
| 20260903060455 | 12 | 324 | 0.0 | 1.6 | 0.00 | 0.00 | 0.00 | 77 | 975.3 |
| 20260903060048 | 12 | 324 | 0.0 | 0.0 | 0.00 | 0.00 | 0.00 | 77 | 975.4 |
| 20260903055603 | 12 | 322 | 0.0 | 0.0 | 0.00 | 0.00 | 0.00 | 88 | 975.4 |
| 20260903055133 | 12 | 322 | 0.0 | 0.0 | 0.00 | 0.00 | 0.00 | 88 | 975.5 |
| 20260903054708 | 12 | 322 | 0.0 | 0.0 | 0.00 | 0.00 | 0.00 | 88 | 975.2 |
| 20260903054255 | 11 | 322 | 0.0 | 0.0 | 0.00 | 0.00 | 0.00 | 88 | 975.3 |
| 20260903053843 | 11 | 322 | 0.0 | 0.0 | 0.00 | 0.00 | 0.00 | 88 | 975.1 |
| 20260903053418 | 11 | 322 | 0.0 | 0.0 | 0.00 | 0.00 | 0.00 | 88 | 975.1 |
| 20260903053013 | 11 | 322 | 0.0 | 0.0 | 0.00 | 0.00 | 0.00 | 88 | 974.8 |
| 20260903052548 | 11 | 322 | 0.0 | 0.0 | 0.00 | 0.00 | 0.00 | 88 | 974.7 |
| 20260903052113 | 11 | 322 | 0.0 | 0.0 | 0.00 | 0.00 | 0.00 | 88 | 974.8 |
| 20260903051653 | 11 | 322 | 0.0 | 0.0 | 0.00 | 0.00 | 0.00 | 88 | 974.8 |
| 20260903051203 | 11 | 322 | 0.0 | 0.0 | 0.00 | 0.00 | 0.00 | 88 | 974.6 |
| 20260903050743 | 11 | 322 | 0.0 | 0.0 | 0.00 | 0.00 | 0.00 | 87 | 974.7 |
| 20260903050333 | 11 | 322 | 0.0 | 0.0 | 0.00 | 0.00 | 0.00 | 87 | 974.8 |
| 20260903045913 | 11 | 322 | 1.6 | 0.0 | 0.00 | 0.00 | 0.00 | 87 | 974.8 |
| 20260903045458 | 11 | 322 | 0.0 | 0.0 | 0.00 | 0.00 | 0.00 | 87 | 974.6 |
| 20260903045043 | 11 | 322 | 0.0 | 0.0 | 0.00 | 0.00 | 0.00 | 87 | 974.8 |
| 20260903044618 | 11 | 322 | 0.0 | 0.0 | 0.00 | 0.00 | 0.00 | 86 | 975.1 |
| 20260903044118 | 12 | 322 | 0.0 | 0.0 | 0.00 | 0.00 | 0.00 | 86 | 974.7 |
| 20260903043638 | 11 | 322 | 0.0 | 0.0 | 0.00 | 0.00 | 0.00 | 86 | 974.6 |
| 20260903043203 | 11 | 322 | 0.0 | 1.6 | 0.00 | 0.00 | 0.00 | 88 | 974.5 |
| 20260903042728 | 11 | 322 | 3.2 | 1.6 | 0.00 | 0.00 | 0.00 | 88 | 974.8 |
| 20260903042238 | 11 | 322 | 0.0 | 1.6 | 0.00 | 0.00 | 0.00 | 88 | 974.7 |
| 20260903041823 | 11 | 322 | 0.0 | 1.6 | 0.00 | 0.00 | 0.00 | 88 | 974.7 |
| 20260903041333 | 11 | 322 | 0.0 | 1.6 | 0.00 | 0.00 | 0.00 | 88 | 974.8 |
| 20260903040908 | 11 | 322 | 0.0 | 1.6 | 0.00 | 0.00 | 0.00 | 88 | 975.0 |
| 20260903040448 | 12 | 322 | 0.0 | 1.6 | 0.00 | 0.00 | 0.00 | 88 | 974.5 |
| 20260903040038 | 11 | 322 | 0.0 | 1.6 | 0.00 | 0.00 | 0.00 | 88 | 974.6 |
| 20260903035623 | 11 | 327 | 1.6 | 1.6 | 0.00 | 0.00 | 0.00 | 88 | 974.9 |
| 20260903035148 | 11 | 327 | 0.0 | 1.6 | 0.00 | 0.00 | 0.00 | 88 | 974.8 |
| 20260903034708 | 12 | 327 | 1.6 | 1.6 | 0.00 | 0.00 | 0.00 | 88 | 974.7 |
| 20260903034253 | 12 | 327 | 1.6 | 1.6 | 0.00 | 0.00 | 0.00 | 88 | 974.9 |
| 20260903033833 | 12 | 327 | 1.6 | 0.0 | 0.00 | 0.00 | 0.00 | 88 | 974.9 |
| 20260903033358 | 12 | 327 | 1.6 | 0.0 | 0.00 | 0.00 | 0.00 | 88 | 974.6 |
| 20260903032918 | 12 | 327 | 0.0 | 0.0 | 0.00 | 0.00 | 0.00 | 75 | 974.8 |
| 20260903032435 | 12 | 327 | 0.0 | 0.0 | 0.00 | 0.00 | 0.00 | 75 | 974.8 |
| 20260903032018 | 12 | 327 | 0.0 | 0.0 | 0.00 | 0.00 | 0.00 | 75 | 974.8 |
| 20260903031555 | 12 | 327 | 0.0 | 0.0 | 0.00 | 0.00 | 0.00 | 75 | 974.8 |
| 20260903031118 | 12 | 327 | 0.0 | 0.0 | 0.00 | 0.00 | 0.00 | 75 | 974.7 |
| 20260903030643 | 12 | 327 | 0.0 | 0.0 | 0.00 | 0.00 | 0.00 | 75 | 974.8 |
| 20260903030203 | 12 | 327 | 0.0 | 0.0 | 0.00 | 0.00 | 0.00 | 75 | 974.8 |
| 20260903025733 | 11 | 327 | 0.0 | 0.0 | 0.00 | 0.00 | 0.00 | 75 | 974.8 |
| 20260903025308 | 11 | 327 | 0.0 | 0.0 | 0.00 | 0.00 | 0.00 | 75 | 974.8 |
| 20260903024833 | 11 | 327 | 0.0 | 0.0 | 0.00 | 0.00 | 0.00 | 75 | 974.9 |
| 20260903024428 | 11 | 327 | 0.0 | 0.0 | 0.00 | 0.00 | 0.00 | 75 | 974.7 |
| 20260903023955 | 11 | 327 | 0.0 | 0.0 | 0.00 | 0.00 | 0.00 | 75 | 974.8 |
| 20260903023535 | 11 | 327 | 1.6 | 0.0 | 0.00 | 0.00 | 0.00 | 75 | 974.7 |
| 20260903023058 | 11 | 327 | 0.0 | 0.0 | 0.00 | 0.00 | 0.00 | 75 | 974.7 |
| 20260903022621 | 11 | 327 | 0.0 | 0.0 | 0.00 | 0.00 | 0.00 | 75 | 974.9 |
| 20260903022143 | 11 | 327 | 1.6 | 0.0 | 0.00 | 0.00 | 0.00 | 75 | 974.8 |
| 20260903021653 | 12 | 327 | 0.0 | 0.0 | 0.00 | 0.00 | 0.00 | 75 | 974.5 |
| 20260903021233 | 12 | 327 | 0.0 | 0.0 | 0.00 | 0.00 | 0.00 | 75 | 974.6 |
| 20260903020743 | 12 | 327 | 0.0 | 0.0 | 0.00 | 0.00 | 0.00 | 75 | 974.8 |
| 20260903020253 | 12 | 327 | 0.0 | 1.6 | 0.00 | 0.00 | 0.00 | 75 | 974.7 |
| 20260903015843 | 12 | 327 | 1.6 | 0.0 | 0.00 | 0.00 | 0.00 | 75 | 974.7 |
| 20260903015423 | 12 | 327 | 1.6 | 0.0 | 0.00 | 0.00 | 0.00 | 75 | 974.7 |
| 20260903015003 | 12 | 327 | 0.0 | 0.0 | 0.00 | 0.00 | 0.00 | 75 | 974.7 |
| 20260903014535 | 12 | 327 | 0.0 | 0.0 | 0.00 | 0.00 | 0.00 | 75 | 974.7 |
| 20260903014113 | 13 | 327 | 0.0 | 0.0 | 0.00 | 0.00 | 0.00 | 75 | 974.6 |